• In Denmark
  • List of Countries
  • For 7 days
  • Water Temperature
  • Satellite Maps
  • Weather Map
  • Weather Widgets
  • user-avatar
    Login

    Hourly Weather Zagorcze

    Today, 24 June, Sunday

    Time Temperature Precipitation Wind Pressure Humidity
    00:00 +10°C° 0.1 mm 4 mps 746 mmHg 92%
    01:00 +10°C° 0 mm 3 mps 746 mmHg 94%
    02:00 +10°C° 0.3 mm 3 mps 746 mmHg 94%
    03:00 +10°C° 0.3 mm 3 mps 746 mmHg 95%
    04:00 +10°C° 0.3 mm 4 mps 746 mmHg 95%
    05:00 +11°C° 0.2 mm 4 mps 746 mmHg 92%
    06:00 +11°C° 0.2 mm 4 mps 746 mmHg 90%
    07:00 +12°C° 0.2 mm 5 mps 746 mmHg 87%
    08:00 +13°C° 0.2 mm 5 mps 746 mmHg 83%
    09:00 +14°C° 0.2 mm 6 mps 745 mmHg 79%
    10:00 +15°C° 0.2 mm 6 mps 745 mmHg 74%
    11:00 +16°C° 0.4 mm 6 mps 745 mmHg 71%
    12:00 +16°C° 0.4 mm 6 mps 745 mmHg 68%
    13:00 +17°C° 0.4 mm 6 mps 745 mmHg 66%
    14:00 +17°C° 0.7 mm 6 mps 745 mmHg 68%
    15:00 +17°C° 0.7 mm 6 mps 745 mmHg 70%
    16:00 +17°C° 0.7 mm 6 mps 745 mmHg 73%
    17:00 +16°C° 0.5 mm 5 mps 745 mmHg 77%
    18:00 +15°C° 0.5 mm 5 mps 745 mmHg 81%
    19:00 +14°C° 0.5 mm 4 mps 745 mmHg 86%
    20:00 +13°C° 0.2 mm 4 mps 745 mmHg 88%
    21:00 +13°C° 0.2 mm 4 mps 746 mmHg 91%
    22:00 +12°C° 0.2 mm 4 mps 746 mmHg 93%
    23:00 +11°C° 0 mm 3 mps 746 mmHg 94%

    Tomorrow, 25 June, Monday

    Time Temperature Precipitation Wind Pressure Humidity
    00:00 +11°C° 0 mm 3 mps 746 mmHg 95%
    01:00 +10°C° 0 mm 3 mps 746 mmHg 96%
    02:00 +10°C° 0 mm 2 mps 747 mmHg 96%
    03:00 +10°C° 0 mm 2 mps 747 mmHg 96%
    04:00 +10°C° 0 mm 2 mps 747 mmHg 96%
    05:00 +12°C° 0 mm 2 mps 747 mmHg 93%
    06:00 +12°C° 0 mm 3 mps 747 mmHg 90%
    07:00 +13°C° 0 mm 3 mps 748 mmHg 87%
    08:00 +14°C° 0.1 mm 3 mps 748 mmHg 82%
    09:00 +16°C° 0.1 mm 3 mps 748 mmHg 77%
    10:00 +18°C° 0.1 mm 3 mps 748 mmHg 71%
    11:00 +19°C° 0.2 mm 3 mps 748 mmHg 68%
    12:00 +19°C° 0.2 mm 4 mps 748 mmHg 64%
    13:00 +20°C° 0.2 mm 4 mps 748 mmHg 60%
    14:00 +20°C° 0.1 mm 4 mps 748 mmHg 60%
    15:00 +20°C° 0.1 mm 4 mps 748 mmHg 60%
    16:00 +21°C° 0.1 mm 4 mps 747 mmHg 60%
    17:00 +20°C° 0.1 mm 3 mps 748 mmHg 64%
    18:00 +19°C° 0.1 mm 2 mps 748 mmHg 69%
    19:00 +19°C° 0.1 mm 1 mps 748 mmHg 74%
    20:00 +17°C° 0.1 mm 2 mps 748 mmHg 77%
    21:00 +16°C° 0.1 mm 2 mps 748 mmHg 79%
    22:00 +15°C° 0.1 mm 2 mps 748 mmHg 82%
    23:00 +14°C° 0 mm 2 mps 748 mmHg 84%

    Day after tomorrow, 26 June, Tuesday

    Time Temperature Precipitation Wind Pressure Humidity
    00:00 +14°C° 0 mm 2 mps 748 mmHg 86%
    01:00 +13°C° 0 mm 2 mps 748 mmHg 88%
    02:00 +13°C° 0 mm 2 mps 748 mmHg 90%
    03:00 +13°C° 0 mm 2 mps 748 mmHg 91%
    04:00 +12°C° 0 mm 2 mps 748 mmHg 92%
    05:00 +14°C° 0 mm 2 mps 748 mmHg 88%
    06:00 +14°C° 0 mm 3 mps 748 mmHg 83%
    07:00 +16°C° 0 mm 3 mps 748 mmHg 78%
    08:00 +18°C° 0 mm 3 mps 748 mmHg 73%
    09:00 +19°C° 0 mm 4 mps 748 mmHg 67%
    10:00 +20°C° 0 mm 4 mps 748 mmHg 62%
    11:00 +21°C° 0.5 mm 4 mps 748 mmHg 62%
    12:00 +21°C° 0.5 mm 5 mps 748 mmHg 62%
    13:00 +22°C° 0.5 mm 5 mps 748 mmHg 62%
    14:00 +21°C° 0.7 mm 5 mps 748 mmHg 64%
    15:00 +21°C° 0.7 mm 5 mps 747 mmHg 66%
    16:00 +21°C° 0.7 mm 5 mps 747 mmHg 68%
    17:00 +20°C° 0.5 mm 4 mps 747 mmHg 73%
    18:00 +19°C° 0.5 mm 3 mps 747 mmHg 77%
    19:00 +18°C° 0.5 mm 2 mps 748 mmHg 81%
    20:00 +17°C° 0 mm 2 mps 748 mmHg 84%
    21:00 +16°C° 0 mm 2 mps 748 mmHg 86%
    22:00 +15°C° 0 mm 2 mps 748 mmHg 89%
    23:00 +14°C° 0 mm 2 mps 748 mmHg 90%

    27 June, Wednesday

    Time Temperature Precipitation Wind Pressure Humidity
    00:00 +14°C° 0 mm 2 mps 748 mmHg 91%
    01:00 +13°C° 0 mm 2 mps 748 mmHg 92%
    02:00 +13°C° 0 mm 2 mps 748 mmHg 93%
    03:00 +12°C° 0 mm 2 mps 749 mmHg 94%
    04:00 +12°C° 0 mm 2 mps 749 mmHg 94%
    05:00 +13°C° 0 mm 2 mps 749 mmHg 91%
    06:00 +13°C° 0 mm 3 mps 749 mmHg 87%
    07:00 +14°C° 0 mm 3 mps 749 mmHg 83%
    08:00 +16°C° 0.2 mm 3 mps 749 mmHg 79%
    09:00 +17°C° 0.2 mm 3 mps 748 mmHg 75%
    10:00 +18°C° 0.2 mm 3 mps 748 mmHg 71%
    11:00 +19°C° 0.9 mm 3 mps 748 mmHg 70%
    12:00 +19°C° 0.9 mm 4 mps 747 mmHg 70%
    13:00 +20°C° 0.9 mm 4 mps 747 mmHg 69%
    14:00 +20°C° 0.7 mm 4 mps 747 mmHg 68%
    15:00 +20°C° 0.7 mm 3 mps 747 mmHg 67%
    16:00 +20°C° 0.7 mm 3 mps 747 mmHg 66%
    17:00 +20°C° 0.4 mm 3 mps 747 mmHg 70%
    18:00 +19°C° 0.4 mm 3 mps 747 mmHg 75%
    19:00 +18°C° 0.4 mm 2 mps 747 mmHg 79%
    20:00 +17°C° 0 mm 2 mps 747 mmHg 82%
    21:00 +16°C° 0 mm 3 mps 747 mmHg 86%
    22:00 +14°C° 0 mm 3 mps 747 mmHg 89%
    23:00 +14°C° 0 mm 3 mps 747 mmHg 90%

    28 June, Thursday

    Time Temperature Precipitation Wind Pressure Humidity
    00:00 +13°C° 0 mm 3 mps 747 mmHg 92%
    01:00 +13°C° 0 mm 3 mps 747 mmHg 93%
    02:00 +13°C° 0.1 mm 3 mps 747 mmHg 94%
    03:00 +14°C° 0.1 mm 3 mps 746 mmHg 95%
    04:00 +14°C° 0.1 mm 3 mps 746 mmHg 96%
    05:00 +14°C° 0.2 mm 4 mps 746 mmHg 95%
    06:00 +15°C° 0.2 mm 4 mps 746 mmHg 94%
    07:00 +15°C° 0.2 mm 4 mps 745 mmHg 93%
    08:00 +16°C° 1 mm 5 mps 744 mmHg 91%
    09:00 +17°C° 1 mm 5 mps 744 mmHg 90%
    10:00 +17°C° 1 mm 6 mps 743 mmHg 88%
    11:00 +17°C° 3.1 mm 6 mps 742 mmHg 89%
    12:00 +17°C° 3.1 mm 6 mps 741 mmHg 90%
    13:00 +17°C° 3.1 mm 7 mps 740 mmHg 91%
    14:00 +17°C° 2.9 mm 6 mps 739 mmHg 92%
    15:00 +17°C° 2.9 mm 6 mps 739 mmHg 92%
    16:00 +17°C° 2.9 mm 5 mps 738 mmHg 93%
    17:00 +17°C° 0.1 mm 5 mps 738 mmHg 92%
    18:00 +17°C° 0.1 mm 5 mps 738 mmHg 92%
    19:00 +17°C° 0.1 mm 5 mps 737 mmHg 91%
    20:00 +16°C° 0 mm 5 mps 738 mmHg 91%
    21:00 +17°C° 0 mm 4 mps 738 mmHg 92%
    22:00 +15°C° 0 mm 4 mps 738 mmHg 92%
    23:00 +14°C° 0 mm 4 mps 738 mmHg 93%

    29 June, Friday

    Time Temperature Precipitation Wind Pressure Humidity
    00:00 +14°C° 0 mm 3 mps 738 mmHg 94%
    01:00 +14°C° 0 mm 3 mps 738 mmHg 94%
    02:00 +14°C° 0 mm 2 mps 738 mmHg 95%
    03:00 +14°C° 0 mm 2 mps 738 mmHg 95%
    04:00 +14°C° 0 mm 2 mps 738 mmHg 95%
    05:00 +15°C° 0 mm 2 mps 738 mmHg 90%
    06:00 +18°C° 0 mm 1 mps 739 mmHg 85%
    07:00 +19°C° 0 mm 1 mps 739 mmHg 80%
    08:00 +21°C° 0 mm 1 mps 739 mmHg 74%
    09:00 +22°C° 0 mm 1 mps 739 mmHg 69%
    10:00 +24°C° 0 mm 1 mps 739 mmHg 63%
    11:00 +24°C° 0 mm 1 mps 739 mmHg 60%
    12:00 +25°C° 0 mm 1 mps 739 mmHg 57%
    13:00 +26°C° 0 mm 1 mps 738 mmHg 55%
    14:00 +26°C° 0.1 mm 1 mps 738 mmHg 54%
    15:00 +26°C° 0.1 mm 1 mps 738 mmHg 53%
    16:00 +26°C° 0.1 mm 1 mps 738 mmHg 52%
    17:00 +25°C° 0.1 mm 1 mps 738 mmHg 58%
    18:00 +24°C° 0.1 mm 2 mps 738 mmHg 64%
    19:00 +23°C° 0.1 mm 2 mps 739 mmHg 70%
    20:00 +21°C° 0.1 mm 2 mps 739 mmHg 76%
    21:00 +19°C° 0.1 mm 3 mps 739 mmHg 83%
    22:00 +18°C° 0.1 mm 3 mps 739 mmHg 89%
    23:00 +18°C° 0.1 mm 3 mps 739 mmHg 91%
    Show more